Temperature
6 6 6 6 6 6 6 6 5 5 5 5 5 5 5 5 6 6 6 6 5 6 6 6 5 5 5 5 5 5 5 5 5 5 5 5 5 5
5 5 5 5 5 5 5 5 5 5 4 5 5 5 5 5 5 5 5 5 5 5 5 5 5 5 5 5 5 4 4 4 4 4 4 4 4 4
4 5 5 5 5 5 4 4 4 4 4 4 4 4 4 4 5 5 5 5 5 5 5 5 5 4 4 4 4 4 4 4 4 4 4 4 4 4
4 4 4 4 4 4 4 4 4 4 4 4 4 4 4 4 4 4 4 4 4 4 4 4 4 4 4 4 3 3 3 3 3 3 3 3 3 3
3 3 4 4 4 4 4 4 4 4 3 3 3 3 3 3 3 3 3 4 4 4 3 3 3 3 3 3 3 3 3 3 3 3 2 2 2 3
3 3 3 3 3 3 3 3 3 3 3 3 3 3 3 3 3 3 3 3 3 3 3 3 3 3 3 3 3 2 2 2 2 2 2 2 2 2
2 2 2 3 3 3 3 3 3 2 2 2 2 2 2 2 2 2 2 2 2 2 2 2 2 2 2 2 2 2 2 2 2 1 1 1 1 1
2 2 2 2 2 2 2 2 2 2 2 2 2 2 2 2 2 1 1 1 1 1 1 2 1 2 2 1 1 1 1 1 1 1 1 1 1 1
1 1 1 1 1 1 1 1 1 1 2 1 1 1 1 1 1 1 1 1 1 1 0 1 1 1 1 1 1 1 1 1 1 0 0 0 0 0
0 1 1 1 1 1 1 1 1 1 1 1 1 1 1 1 1 1 0 0 0 -0 -0 -0 0 0 0 0 0 0 0 0 -0 -0 -0 -0 -0 -0
-0 -0 -0 -0 0 0 0 0 0 0 0 0 0 0 -0 -0 -0 -0 -0 -0 -1 -1 -1 -1 -1 -1 -0 -0 -0 -0 -1 -1 -1 -1 -1 -1 -1 -1
-1 -1 -1 -1 -1 -1 -1 -0 -0 -0 -0 -0 -0 -1 -1 -1 -1 -1 -1 -1 -1 -1 -1 -1 -2 -2 -2 -1 -1 -1 -1 -1 -1 -1 -1 -1 -1 -1
-2 -2 -2 -1 -1 -1 -1 -1 -1 -1 -1 -1 -1 -1 -1 -1 -1 -1 -1 -1 -1 -2 -2 -2 -2 -2 -2 -2 -2 -2 -2 -2 -2 -2 -2 -2 -2 -2
-3 -3 -2 -2 -2 -2 -2 -2 -2 -2 -2 -2 -2 -2 -2 -2 -2 -2 -2 -2 -2 -2 -2 -3 -3 -3 -3 -3 -3 -3 -3 -3 -3 -3 -3 -3 -2 -3
-3 -3 -3 -3 -3 -3 -3 -2 -2 -2 -2 -2 -2 -2 -2 -2 -2 -2 -2 -3 -3 -3 -3 -3 -3 -3 -4 -4 -4 -3 -3 -3 -3 -3 -3 -3 -3 -3
-4 -4 -4 -4 -4 -3 -3 -3 -3 -3 -3 -3 -3 -3 -3 -3 -3 -3 -3 -3 -3 -3 -4 -4 -4 -4 -4 -4 -4 -4 -4 -4 -4 -4 -4 -4 -4 -4
-4 -4 -4 -4 -4 -4 -4 -4 -4 -4 -4 -4 -4 -4 -4 -4 -4 -4 -4 -4 -4 -4 -4 -4 -4 -5 -5 -5 -5 -5 -5 -5 -5 -5 -5 -4 -4 -4
-5 -5 -5 -5 -5 -5 -5 -5 -5 -5 -5 -5 -5 -5 -5 -5 -5 -5 -5 -5 -5 -5 -5 -5 -5 -5 -5 -5 -5 -5 -5 -5 -5 -5 -5 -5 -5 -5
-6 -6 -6 -6 -5 -6 -6 -6 -6 -6 -6 -6 -6 -6 -6 -6 -6 -6 -6 -5 -5 -6 -6 -6 -6 -6 -6 -6 -6 -6 -6 -6 -6 -6 -6 -6 -6 -5
-6 -6 -6 -6 -6 -6 -6 -6 -6 -6 -6 -6 -6 -6 -6 -6 -6 -6 -6 -6 -6 -6 -6 -6 -7 -7 -7 -7 -7 -6 -7 -7 -7 -7 -6 -6 -6 -6
-7 -7 -7 -7 -7 -7 -7 -7 -7 -7 -7 -7 -7 -7 -7 -7 -7 -7 -7 -7 -7 -7 -7 -7 -7 -7 -7 -7 -7 -7 -7 -7 -7 -7 -7 -7 -7 -6
-7 -7 -7 -7 -7 -7 -7 -8 -8 -8 -8 -8 -8 -8 -8 -8 -8 -8 -8 -8 -8 -8 -8 -8 -8 -8 -8 -8 -8 -8 -7 -7 -7 -7 -7 -8 -8 -8
-8 -8 -8 -8 -8 -8 -8 -8 -8 -8 -8 -8 -8 -8 -8 -8 -8 -8 -8 -8 -8 -8 -8 -8 -8 -8 -8 -8 -8 -8 -8 -8 -8 -7 -7 -7 -8 -8
Wind_Speed
4 5 4 3 3 3 3 4 4 3 3 3 2 1 2 1 1 1 1 3 3 4 4 3 3 3 3 2 2 2 2 2 3 3 4 4 5 5
3 4 4 3 4 3 3 3 3 4 3 2 2 1 1 2 2 1 1 2 3 4 4 3 3 3 2 2 2 2 1 2 3 4 4 5 5 5
3 4 5 4 4 4 3 3 3 3 4 2 1 1 1 1 2 2 2 2 2 4 4 4 4 4 3 3 2 2 2 3 4 4 5 6 6 6
3 4 4 4 5 4 4 4 4 4 4 3 1 1 1 1 1 1 2 2 2 3 4 4 3 3 3 3 3 3 3 3 4 5 6 6 7 7
4 4 4 5 5 4 4 5 4 3 3 3 2 1 1 1 0 1 1 2 2 2 2 3 3 3 3 3 3 3 3 4 5 6 6 7 7 8
3 3 4 5 6 6 5 5 5 4 4 4 3 2 1 1 1 1 1 1 2 2 2 2 2 2 2 3 3 4 4 5 6 6 7 7 8 8
2 2 3 4 5 5 5 6 6 5 4 4 3 2 1 2 2 1 1 1 2 1 1 2 2 2 2 3 4 5 6 7 7 7 7 8 8 9
2 2 2 3 3 3 4 5 6 6 6 4 3 3 3 2 1 1 1 1 1 1 0 2 2 2 3 4 5 6 6 7 7 8 8 8 8 8
3 3 2 2 2 3 3 3 3 4 6 6 5 5 4 4 3 2 2 2 2 1 1 2 1 2 3 4 5 6 6 6 7 7 7 8 8 8
2 3 3 3 3 4 4 3 2 3 4 4 5 4 4 4 4 4 3 1 1 1 1 2 2 2 3 4 5 6 6 6 6 7 7 7 7 8
1 2 2 3 3 4 4 4 3 2 1 3 3 2 3 3 3 2 2 1 2 2 0 1 1 2 2 2 4 4 5 5 5 6 6 6 7 8
1 1 1 2 3 3 4 5 3 2 2 2 2 2 2 2 2 2 3 3 1 2 1 0 1 1 1 1 2 3 3 4 5 6 7 7 7 5
1 1 1 2 3 3 2 3 3 2 3 3 2 2 2 1 1 1 0 2 2 2 1 1 1 1 1 2 2 2 3 3 4 5 7 8 8 6
1 1 2 3 3 2 2 3 4 3 2 2 2 1 1 1 1 1 2 1 1 2 2 2 2 2 2 3 3 2 3 3 4 4 5 7 7 8
2 3 3 4 4 3 4 4 3 2 2 2 2 1 1 1 1 1 2 2 3 2 1 1 1 2 2 3 3 3 3 3 3 3 4 4 5 5
2 3 5 5 5 5 4 3 2 2 2 2 1 1 1 1 1 1 0 0 0 1 2 2 1 2 3 4 4 4 3 3 3 4 4 5 6 6
2 2 2 3 3 3 3 3 2 2 2 2 1 1 1 1 1 0 0 0 1 1 2 3 4 3 2 3 3 4 4 4 4 3 4 5 5 6
2 2 2 2 2 2 2 2 2 2 2 2 1 1 1 1 1 1 1 0 1 1 2 2 2 2 2 2 3 4 4 4 4 4 3 5 6 6
2 2 2 2 1 1 1 1 1 2 2 1 1 1 1 1 1 1 1 1 1 1 2 1 1 1 2 4 3 4 4 4 4 4 4 4 6 7
2 2 1 1 1 1 1 1 1 1 1 1 1 1 0 0 0 1 1 1 2 2 2 2 2 2 3 4 3 4 6 5 4 5 5 5 5 9
1 1 1 1 1 1 1 1 0 0 0 0 0 0 0 0 1 1 2 2 2 2 3 3 4 4 3 1 3 4 4 7 6 5 5 4 5 4
1 1 1 1 0 0 0 0 0 0 0 0 1 1 1 1 2 2 2 2 2 3 4 4 3 2 1 2 4 5 5 5 8 9 9 7 4 3
2 1 1 1 1 0 0 1 1 1 1 1 1 1 1 2 2 2 2 2 2 3 3 3 2 2 2 3 4 4 5 5 4 5 5 9 11 14
Wind_Direction
203 198 198 198 191 190 174 170 172 197 231 230 233 294 311 319 306 294 276 276 269 263 262 263 262 255 248 229 212 229 249 258 261 260 273 268 255 256
208 201 204 201 194 188 187 188 182 185 215 219 218 246 304 300 297 291 273 285 275 271 267 266 257 249 239 221 212 203 216 254 265 271 276 274 263 261
207 201 207 197 193 190 186 187 187 176 206 233 223 245 240 282 316 308 295 286 280 272 268 265 255 245 229 232 217 210 227 254 265 271 276 277 273 268
211 205 210 199 195 191 188 190 192 186 183 204 227 229 235 256 286 302 308 295 291 282 266 260 253 239 229 228 230 232 240 257 268 273 277 278 275 273
212 212 210 198 200 195 189 190 193 187 173 181 205 208 228 232 312 322 330 334 326 303 277 271 256 236 223 225 240 245 255 264 269 272 277 280 279 276
215 214 209 203 203 195 192 189 182 178 172 175 187 193 202 206 179 216 314 350 341 336 325 305 280 253 249 256 263 269 274 276 277 277 277 277 277 275
209 215 214 207 203 199 194 185 179 179 178 183 191 197 198 191 207 207 255 320 338 324 358 331 316 305 294 274 264 267 274 277 278 279 280 281 279 276
196 200 207 196 188 190 196 190 185 185 187 193 205 207 212 215 205 200 220 264 282 303 323 309 313 300 301 283 277 274 277 280 282 282 284 284 283 282
193 186 188 185 178 158 156 168 189 197 195 193 197 211 209 206 198 215 237 252 257 247 269 282 289 283 305 287 282 282 283 286 287 288 290 289 287 285
186 174 176 178 181 164 152 160 176 197 198 190 190 200 209 208 205 210 209 213 287 305 288 255 265 269 301 300 287 281 285 290 294 296 296 293 291 295
163 162 158 155 167 162 157 160 165 169 145 156 161 162 177 191 186 156 161 182 264 278 287 227 262 290 289 288 300 295 291 295 304 307 307 304 302 301
76 98 152 147 156 161 163 161 171 179 147 129 113 97 97 120 143 178 193 198 234 257 253 198 239 325 312 295 320 335 328 316 314 312 312 310 307 307
79 69 81 102 131 140 156 162 172 162 149 142 141 135 116 103 78 55 172 201 212 236 218 169 225 262 248 285 300 319 326 324 319 313 310 308 308 305
84 78 87 81 81 102 118 134 127 113 123 129 133 140 139 135 87 53 61 68 157 218 214 208 220 244 258 273 279 298 312 319 318 317 318 312 310 303
82 88 80 74 62 63 74 89 103 115 123 130 138 147 163 169 124 75 55 65 62 46 33 308 238 246 248 253 264 277 295 299 305 310 312 309 304 307
67 78 72 67 60 57 57 56 56 91 119 131 132 122 79 116 139 152 183 129 33 340 358 351 304 243 251 256 253 267 271 272 296 302 304 302 302 293
73 63 63 68 67 62 58 55 58 64 66 76 98 93 73 55 25 33 134 304 234 277 308 336 350 335 275 250 258 263 271 276 277 291 300 299 290 286
65 77 72 71 73 67 65 53 48 52 54 65 74 79 70 49 9 355 356 260 236 259 280 304 333 344 336 305 250 255 268 274 285 287 282 286 291 291
62 71 69 69 66 67 65 56 38 42 51 56 57 56 48 33 3 346 331 320 292 279 279 281 293 270 292 293 290 254 254 277 287 286 277 269 279 291
53 71 69 62 56 54 53 45 45 46 51 54 62 61 66 107 312 304 295 272 267 274 279 272 251 238 240 254 266 280 273 269 273 277 283 284 281 288
29 36 42 50 51 46 43 36 39 23 33 43 31 287 251 218 243 255 263 280 287 276 269 270 264 274 262 258 281 280 279 277 273 275 280 288 293 295
358 354 354 1 24 29 327 247 249 277 285 278 268 268 265 246 243 251 259 267 276 275 273 273 283 289 244 246 271 280 290 300 298 289 276 264 261 265
335 330 324 319 320 298 262 239 236 252 253 251 256 263 265 265 263 257 257 262 269 276 280 278 279 268 257 254 265 277 285 294 302 307 296 291 283 279
Height
1492 1494 1496 1498 1501 1503 1505 1507 1509 1510 1511 1513 1515 1516 1517 1518 1519 1519 1520 1521 1521 1522 1523 1524 1525 1525 1526 1526 1527 1527 1528 1528 1528 1529 1529 1529 1529 1529
1487 1489 1491 1493 1496 1498 1500 1502 1504 1506 1507 1508 1510 1512 1513 1514 1514 1515 1516 1516 1517 1518 1519 1520 1520 1521 1522 1522 1522 1523 1523 1524 1524 1524 1524 1524 1524 1524
1483 1484 1486 1489 1491 1493 1495 1497 1499 1501 1502 1504 1506 1508 1509 1510 1511 1511 1512 1512 1513 1514 1514 1515 1516 1516 1517 1518 1518 1518 1518 1519 1520 1520 1519 1519 1519 1519
1478 1479 1481 1483 1485 1488 1490 1492 1494 1496 1498 1499 1501 1503 1504 1506 1506 1507 1508 1508 1508 1509 1510 1510 1511 1511 1512 1513 1513 1513 1513 1514 1515 1514 1514 1515 1514 1515
1473 1474 1476 1478 1480 1482 1484 1487 1489 1491 1493 1494 1496 1498 1500 1502 1502 1503 1503 1504 1504 1504 1505 1506 1506 1507 1507 1508 1508 1509 1509 1509 1510 1509 1509 1509 1509 1509
1468 1469 1471 1473 1474 1477 1479 1481 1484 1486 1488 1490 1492 1493 1495 1497 1498 1498 1499 1500 1500 1500 1501 1501 1502 1502 1503 1503 1504 1504 1504 1504 1504 1504 1504 1504 1504 1503
1463 1464 1466 1468 1469 1472 1474 1476 1479 1481 1483 1485 1487 1489 1490 1492 1493 1494 1495 1495 1495 1496 1496 1497 1497 1498 1498 1499 1499 1499 1499 1499 1499 1499 1499 1498 1498 1498
1458 1459 1461 1463 1465 1467 1470 1472 1474 1477 1478 1480 1482 1483 1485 1487 1489 1490 1490 1490 1490 1493 1492 1492 1493 1493 1494 1494 1494 1495 1495 1494 1494 1494 1493 1493 1492 1492
1454 1455 1457 1459 1461 1463 1465 1467 1470 1472 1475 1476 1477 1479 1481 1483 1484 1485 1486 1486 1486 1488 1488 1487 1489 1489 1490 1490 1490 1490 1490 1489 1489 1488 1488 1487 1487 1486
1450 1451 1453 1455 1457 1458 1460 1462 1465 1467 1470 1472 1474 1475 1477 1479 1480 1481 1482 1482 1483 1484 1484 1483 1484 1484 1485 1485 1485 1485 1485 1484 1483 1483 1483 1482 1482 1481
1446 1448 1450 1451 1453 1455 1457 1458 1460 1463 1466 1468 1470 1471 1473 1475 1476 1477 1477 1478 1478 1479 1480 1479 1479 1479 1479 1480 1480 1480 1480 1480 1479 1478 1478 1477 1477 1476
1443 1445 1447 1448 1450 1451 1453 1455 1456 1458 1461 1463 1465 1467 1468 1470 1471 1473 1473 1474 1473 1474 1475 1475 1475 1475 1475 1474 1475 1476 1475 1475 1474 1474 1473 1473 1472 1471
1441 1442 1444 1445 1447 1448 1450 1452 1453 1455 1457 1459 1461 1462 1464 1466 1467 1468 1469 1470 1470 1470 1471 1471 1471 1471 1471 1470 1470 1471 1470 1470 1469 1469 1468 1468 1467 1466
1439 1440 1441 1443 1444 1446 1447 1448 1450 1452 1453 1455 1457 1458 1460 1461 1463 1464 1465 1466 1466 1466 1467 1467 1467 1467 1467 1466 1465 1465 1465 1465 1465 1464 1463 1462 1462 1461
1439 1439 1440 1441 1442 1443 1444 1446 1447 1449 1450 1452 1453 1454 1456 1457 1459 1460 1461 1461 1462 1462 1463 1463 1463 1463 1463 1462 1461 1460 1460 1460 1460 1459 1458 1457 1456 1455
1438 1438 1439 1440 1441 1441 1442 1443 1445 1446 1447 1448 1449 1451 1452 1453 1454 1455 1456 1457 1458 1458 1459 1459 1459 1459 1458 1458 1457 1456 1456 1455 1454 1454 1453 1451 1450 1449
1436 1437 1437 1438 1439 1440 1441 1441 1443 1444 1445 1446 1447 1448 1449 1450 1451 1452 1452 1453 1453 1454 1454 1455 1455 1455 1454 1454 1453 1452 1451 1451 1450 1449 1447 1445 1445 1444
1435 1435 1436 1437 1437 1438 1439 1440 1441 1441 1442 1443 1444 1445 1446 1446 1447 1449 1449 1450 1450 1450 1450 1451 1451 1451 1451 1450 1450 1448 1447 1446 1446 1444 1443 1440 1438 1438
1434 1434 1435 1436 1436 1437 1438 1438 1439 1439 1440 1441 1442 1442 1443 1444 1444 1445 1446 1446 1446 1447 1447 1447 1447 1447 1446 1444 1444 1445 1444 1442 1441 1439 1438 1436 1433 1432
1433 1433 1434 1434 1435 1435 1436 1436 1437 1438 1438 1439 1440 1440 1441 1441 1441 1442 1442 1443 1443 1443 1443 1444 1444 1443 1443 1442 1440 1440 1440 1438 1436 1434 1432 1430 1429 1428
1432 1432 1432 1433 1433 1434 1434 1434 1435 1435 1436 1436 1437 1437 1438 1438 1438 1439 1439 1439 1440 1440 1439 1439 1440 1440 1440 1439 1437 1435 1435 1435 1433 1430 1428 1426 1423 1421
1430 1431 1431 1431 1431 1432 1432 1432 1433 1433 1433 1434 1434 1434 1435 1435 1435 1435 1436 1436 1436 1436 1436 1436 1436 1436 1435 1434 1432 1431 1429 1429 1428 1427 1426 1424 1421 1417
1429 1429 1429 1429 1429 1429 1430 1430 1430 1430 1430 1431 1431 1431 1432 1432 1432 1432 1433 1432 1432 1432 1432 1432 1432 1431 1431 1430 1428 1427 1425 1424 1422 1421 1421 1419 1418 1416